Theta_e
305 304 303 303 303 303 303 303 303 304 303 302 302 303 304 302 302 302 302 307 306 302 304 304 304 304 304 305 306 306 305 304 304 304 304 304 304 304 305 305 305 304 304 303 302 302 302 303 303 303 303 303 304 304 304 304 304 305 306 308 310 311 311 311 311 314 318 321 323 324 325 326 329 332 332 332 333 333 334 334 334 334 333 333 332 331
306 305 304 303 302 302 303 304 304 304 303 303 303 303 303 302 302 302 302 307 307 304 305 305 304 304 303 303 304 305 304 303 303 303 303 303 303 303 303 303 303 303 304 304 304 303 302 303 304 303 304 303 303 304 304 304 304 305 305 307 308 309 310 310 310 310 313 318 320 322 323 324 326 328 329 331 332 332 332 333 333 333 332 331 331 329
305 305 305 304 303 301 302 303 304 304 303 303 303 302 303 302 302 302 303 304 305 304 304 303 303 302 302 302 303 303 302 302 302 302 303 303 302 303 302 303 303 303 303 304 304 303 301 302 303 304 304 304 304 304 304 304 305 305 305 306 307 308 309 310 310 309 310 313 316 319 322 323 324 324 326 329 330 331 331 330 330 330 328 326 325 325
303 303 304 304 303 302 303 303 304 303 302 302 302 302 302 302 302 302 303 303 303 304 304 302 302 301 301 301 302 303 302 302 303 303 303 303 303 302 303 303 303 303 303 303 303 303 302 301 301 302 303 303 304 304 304 304 305 305 305 306 306 308 309 309 309 309 309 310 312 314 317 319 320 320 322 324 324 325 327 327 327 324 320 318 317 319
302 303 303 302 302 302 302 303 303 303 302 302 302 302 302 303 302 301 302 302 302 303 302 301 301 300 301 302 302 303 303 303 303 303 303 303 303 303 303 303 303 303 303 303 303 303 303 303 301 301 302 303 303 304 304 305 305 305 305 306 306 307 308 309 309 309 309 309 310 311 312 313 314 314 314 315 316 317 319 320 320 317 314 313 314 316
301 301 302 302 301 301 301 302 302 303 303 302 303 303 302 303 303 302 301 301 301 302 301 301 302 303 302 303 303 304 304 303 302 302 303 302 303 303 303 303 303 303 304 303 303 304 304 303 302 301 302 302 302 303 304 305 305 306 306 306 306 307 307 308 309 308 308 308 309 310 310 309 309 309 310 310 312 313 314 314 313 313 312 312 314 315
301 301 302 301 301 301 301 300 300 302 302 301 302 304 303 303 303 302 301 301 301 302 303 301 301 303 304 304 305 306 306 304 302 302 302 302 302 303 303 303 304 304 303 304 304 304 304 304 303 303 302 302 301 302 303 304 305 305 306 306 306 306 307 308 308 308 308 308 308 308 309 309 309 309 309 309 311 311 311 311 311 311 311 311 313 314
303 302 302 301 301 302 301 301 301 302 302 301 301 303 303 303 303 303 302 302 302 303 303 301 300 302 303 304 305 307 307 304 303 303 302 302 302 302 303 303 304 304 303 304 304 304 304 304 303 302 302 302 302 302 302 303 304 305 305 305 306 306 306 307 308 308 308 308 307 308 308 309 309 309 309 309 310 310 309 309 310 310 310 310 312 313
304 303 302 302 302 302 301 302 303 303 302 302 302 303 303 303 303 302 303 302 302 303 304 303 302 303 304 304 305 306 305 305 305 304 302 301 301 302 302 303 303 303 302 303 303 303 303 302 301 301 301 302 302 302 302 302 303 304 304 305 305 305 306 307 307 308 308 308 308 307 307 308 308 309 309 309 309 309 309 309 309 309 309 309 310 313
303 303 302 302 302 302 302 303 304 303 302 302 303 303 302 302 302 302 303 303 303 304 304 304 304 304 304 305 304 304 304 304 305 304 302 301 301 301 301 301 301 301 301 301 301 301 301 300 299 300 300 300 301 301 301 302 302 303 304 305 305 305 306 306 307 307 307 308 308 307 307 307 308 308 308 308 308 308 308 308 308 308 308 308 310 312
299 299 299 301 301 301 302 304 304 303 302 302 303 303 303 303 303 303 303 303 304 305 305 305 304 304 305 305 304 305 306 305 304 303 304 303 302 301 301 302 301 301 301 301 300 300 300 298 298 298 298 298 299 300 300 301 301 302 303 304 304 305 305 306 306 306 307 307 308 307 307 307 307 308 308 307 307 307 308 308 308 308 308 308 309 310
296 296 298 300 301 301 301 302 302 302 302 302 302 303 304 304 304 304 304 304 305 305 305 306 305 304 305 305 304 305 305 304 303 303 304 303 302 303 304 304 302 301 301 301 301 301 300 299 298 298 297 298 299 299 299 300 301 301 302 303 304 304 305 305 305 306 306 307 307 307 307 307 307 307 307 307 307 307 307 307 308 308 308 308 308 309
294 296 298 300 301 302 301 301 302 302 302 302 303 303 304 306 306 306 306 305 306 305 305 305 306 305 304 304 303 303 303 302 303 303 303 303 303 304 304 303 301 301 301 301 300 300 300 300 300 299 298 298 298 299 299 300 300 301 302 303 304 304 305 305 305 305 306 306 307 307 307 307 307 307 307 307 307 307 307 307 307 307 307 308 308 308
295 295 296 299 301 300 301 302 302 302 303 302 303 304 305 306 307 307 306 306 305 305 305 305 305 305 305 303 303 303 302 303 303 303 303 303 302 302 301 300 300 300 300 299 299 299 298 298 299 298 297 297 298 299 299 299 299 300 301 302 303 304 304 305 305 305 305 306 306 306 307 307 307 307 307 307 307 306 307 307 307 307 307 307 307 308
295 294 296 299 299 297 299 300 299 300 301 302 303 303 305 306 306 307 306 306 305 304 305 305 304 306 307 305 305 304 303 302 301 302 302 300 299 299 298 298 298 298 298 299 299 298 298 298 298 297 297 297 298 298 299 299 299 299 300 302 303 304 304 305 305 305 305 305 306 306 306 307 307 307 307 307 306 306 306 306 307 307 307 307 307 307
292 293 296 297 295 295 297 296 297 299 300 301 302 302 304 304 304 305 305 305 304 304 305 305 305 307 308 306 305 304 302 298 297 298 297 297 296 296 297 297 297 297 297 298 298 298 298 297 297 297 297 297 297 298 298 299 299 299 300 301 302 303 304 305 305 305 305 305 305 305 306 306 306 306 307 306 306 306 306 306 306 307 307 307 307 307
292 293 294 293 293 296 297 295 294 297 298 299 299 300 302 301 301 304 305 304 305 305 305 304 305 306 306 305 305 304 300 294 293 294 294 294 294 295 295 295 296 296 296 296 297 297 297 297 297 296 296 297 297 298 298 298 299 299 300 300 301 303 304 304 305 305 305 305 305 305 305 306 306 306 306 306 306 306 306 306 306 307 307 307 306 307
292 292 292 291 292 294 296 294 292 293 295 295 296 298 299 300 301 303 304 305 306 306 306 304 304 304 303 304 306 304 299 294 292 292 292 292 292 293 294 294 295 295 295 295 295 296 296 297 297 296 295 296 297 298 298 298 299 299 300 300 300 302 303 304 305 305 305 305 305 305 305 305 306 306 306 306 306 306 305 306 306 306 307 307 307 307
292 292 291 291 291 292 293 292 291 293 294 294 296 297 298 299 302 303 303 303 304 305 305 304 304 304 302 303 305 302 296 292 291 291 291 291 291 292 292 293 294 294 294 294 294 295 295 296 296 295 295 295 296 297 297 298 298 299 300 300 300 301 302 304 304 305 305 305 305 305 305 305 305 306 306 306 306 306 305 306 306 306 306 306 307 307
294 292 292 291 290 290 292 292 291 293 294 295 296 296 297 298 300 301 300 299 301 303 304 304 304 304 302 301 302 298 292 291 291 290 290 290 290 291 292 292 293 293 293 294 294 294 295 296 296 294 294 294 294 296 296 297 298 299 300 300 300 301 302 303 304 304 305 305 304 305 305 305 305 305 305 305 306 306 305 306 306 306 306 306 307 307
293 292 292 291 289 289 292 293 293 293 294 295 296 295 296 297 296 297 296 296 298 301 302 303 304 303 299 294 294 293 291 291 290 290 290 290 290 291 292 292 293 293 293 293 293 294 294 295 295 294 294 293 293 294 295 296 298 299 300 300 301 301 302 303 303 304 304 304 304 304 304 305 304 305 305 305 305 305 305 305 305 306 306 306 307 307
292 291 291 290 289 289 291 292 292 293 294 295 294 294 295 294 293 294 294 295 298 299 299 299 300 300 296 292 291 291 291 290 289 289 289 289 290 291 291 292 292 293 293 293 293 293 294 295 295 294 293 293 293 293 293 294 296 298 300 301 301 302 302 303 303 304 304 304 304 304 304 304 304 304 304 304 304 304 305 305 305 306 306 306 307 307
292 291 290 290 289 288 288 288 289 290 291 291 291 291 293 292 292 292 291 293 296 296 295 294 295 297 295 292 291 290 290 290 289 289 290 289 289 290 291 291 292 292 292 292 292 293 294 295 294 294 293 293 292 292 292 293 294 296 298 300 301 302 302 303 303 303 303 303 304 304 304 304 304 304 304 304 304 304 304 305 305 306 306 306 307 307
292 290 290 290 289 288 288 287 287 287 287 288 288 288 289 289 290 290 290 292 293 292 292 292 294 296 295 292 290 290 290 290 290 289 290 290 289 290 291 291 291 292 292 291 292 293 294 294 294 294 293 292 292 292 291 291 292 294 296 298 300 301 302 302 303 303 303 303 303 303 303 303 304 304 304 304 304 304 304 305 305 305 306 306 307 307
291 290 290 289 288 288 288 287 287 287 286 288 289 289 288 287 288 290 291 292 292 291 291 291 291 293 295 294 291 290 291 291 291 290 289 289 289 289 290 291 291 292 291 291 292 293 293 293 294 294 293 292 292 291 291 291 291 292 293 295 297 300 301 302 302 302 302 302 303 303 303 303 303 304 304 304 304 304 304 304 305 305 306 306 307 307
291 290 290 289 288 288 288 287 289 290 288 288 289 289 289 288 289 290 291 292 292 291 291 291 290 291 293 293 291 291 291 291 291 290 289 289 289 290 291 291 291 291 291 291 291 293 293 293 294 293 292 292 291 291 291 290 290 290 291 292 294 297 300 301 301 302 302 302 302 302 303 303 303 303 304 304 304 304 304 304 305 305 306 306 307 307
291 291 289 289 289 288 288 288 290 291 289 288 289 289 288 289 289 290 291 291 291 291 290 290 290 290 290 290 290 290 290 290 290 289 289 288 289 290 291 291 291 291 290 290 291 293 293 293 293 293 292 291 291 291 290 290 290 290 290 291 292 295 298 300 301 301 302 302 302 303 303 303 303 303 304 304 304 304 304 304 305 305 306 306 307 307
290 290 288 288 289 288 288 288 288 289 289 288 288 287 287 288 290 290 290 290 290 289 288 288 288 288 288 288 289 289 289 288 288 288 288 288 289 290 290 291 291 290 290 289 291 292 293 293 293 292 291 291 290 290 290 290 290 289 289 290 291 293 296 299 301 301 302 302 302 303 303 303 303 304 304 304 304 304 304 304 305 305 306 306 306 307
289 288 288 288 288 288 288 287 287 287 287 286 286 285 285 287 288 289 289 289 288 287 287 287 286 286 286 287 288 288 287 287 287 288 288 288 289 290 290 290 290 289 289 289 290 292 293 294 293 292 291 290 290 290 289 290 290 289 289 289 290 291 294 297 299 301 302 302 303 303 303 303 304 304 304 304 304 304 304 304 304 305 305 306 306 307
289 288 289 288 288 287 288 287 287 286 286 285 285 285 285 285 286 286 286 286 286 286 286 286 286 286 286 286 287 287 287 287 288 287 287 287 288 289 290 290 289 289 288 288 290 292 293 294 293 292 291 290 289 289 289 289 289 289 289 289 289 291 293 295 297 300 301 302 302 303 303 303 304 304 304 304 304 304 304 304 304 304 305 305 306 306
289 289 289 289 288 287 287 287 287 286 286 286 285 285 285 285 284 284 284 285 285 285 285 285 285 286 286 286 286 287 287 287 287 287 287 287 288 288 289 289 289 288 288 289 290 292 293 293 293 291 291 290 289 289 288 288 289 289 289 289 289 290 292 294 296 298 300 301 301 302 302 303 303 303 304 304 304 304 304 304 304 304 304 305 305 306
288 288 289 289 288 288 288 287 287 286 286 285 285 285 285 285 285 284 284 285 285 284 284 285 285 285 285 286 286 287 287 287 286 286 286 286 287 288 288 288 287 288 288 289 292 294 293 292 291 291 290 289 289 289 288 288 288 288 288 289 289 290 292 294 296 297 299 299 300 301 302 302 302 303 303 303 304 304 304 304 304 304 304 305 305 305
288 288 288 288 288 288 288 287 287 286 285 285 285 285 285 285 285 285 285 285 285 284 284 285 285 285 285 286 286 286 286 286 286 286 286 286 286 287 287 287 287 287 288 290 293 294 293 291 290 290 289 289 289 289 288 288 288 287 288 288 289 290 291 293 294 296 297 298 299 299 300 301 302 302 303 303 304 304 303 303 303 303 304 304 304 305
288 288 287 287 288 288 287 286 286 285 285 286 286 286 285 285 285 284 284 284 285 285 285 285 285 286 286 286 286 286 286 286 285 285 285 285 286 286 287 286 287 288 290 292 293 293 291 290 289 288 288 288 288 289 288 288 288 287 288 288 288 288 289 290 291 292 293 295 297 298 299 300 301 302 302 302 303 303 303 303 303 303 303 303 304 304
288 288 288 287 287 286 284 285 285 284 286 287 286 286 285 285 285 284 284 284 284 285 285 285 286 286 286 286 285 285 285 285 285 285 285 286 286 286 286 287 289 291 292 292 292 291 290 289 288 287 287 287 288 288 288 288 287 287 288 288 287 287 288 288 288 288 289 291 293 295 297 299 299 300 301 301 301 301 302 302 302 302 302 303 303 304
288 288 288 287 286 284 283 284 285 285 286 286 285 284 285 284 284 284 284 284 284 284 285 285 285 285 285 285 285 285 284 284 285 285 286 286 287 288 289 290 291 291 291 291 290 289 288 288 287 286 286 287 288 288 288 288 287 287 287 287 287 287 287 287 287 287 287 287 289 290 293 296 298 299 299 300 300 300 301 301 301 301 302 302 303 303
288 288 288 287 287 285 284 285 286 286 286 285 284 284 284 284 284 284 284 284 284 284 284 284 284 284 284 284 284 284 284 284 284 284 285 287 289 291 292 291 291 290 290 290 289 288 287 287 286 285 286 286 287 287 287 287 287 287 287 287 286 286 286 286 285 285 285 286 287 288 290 292 295 297 298 298 299 300 300 301 301 301 301 301 301 302
288 288 288 288 288 287 286 285 285 285 286 285 284 284 284 284 284 284 284 284 284 284 283 284 284 284 283 283 284 283 283 284 283 284 286 290 292 293 293 291 290 289 289 289 288 286 286 285 285 285 285 286 286 287 287 287 287 287 286 286 286 285 285 285 284 284 284 285 286 287 288 290 292 295 297 297 298 299 300 300 300 300 301 301 301 301
288 288 288 288 287 287 287 286 286 285 285 285 285 285 284 284 284 283 283 284 284 283 283 283 283 284 283 283 284 283 283 284 283 283 287 292 294 293 293 292 290 289 288 287 286 285 285 284 284 284 285 286 286 286 286 286 286 286 286 285 285 284 283 283 282 282 283 284 286 287 288 290 291 293 295 297 298 299 299 299 299 300 300 300 301 301
288 288 288 288 287 287 287 286 286 286 286 285 285 285 283 283 284 284 283 284 285 284 284 283 283 284 284 284 284 283 283 284 284 285 289 293 294 293 292 291 290 289 287 286 285 284 283 283 283 284 285 285 285 286 286 285 285 286 286 285 283 282 282 281 281 281 281 283 285 287 289 290 290 291 293 295 297 298 298 299 298 299 299 299 300 300
288 288 287 287 287 287 287 286 286 286 286 285 285 284 282 283 284 284 283 285 286 285 284 284 284 284 284 284 284 283 284 284 285 288 292 293 293 292 291 289 288 287 286 285 283 282 282 282 283 284 284 284 285 285 284 283 284 285 285 284 282 281 280 280 280 280 280 282 285 287 289 290 290 290 291 293 295 296 297 297 297 298 298 298 298 299
288 288 288 287 287 287 287 287 286 286 286 284 283 283 283 284 284 284 285 286 287 286 284 284 284 284 284 284 284 284 284 285 287 291 293 293 292 292 291 288 287 286 285 283 281 281 281 281 282 283 283 284 284 283 282 282 283 284 284 283 281 280 279 279 279 279 280 281 283 286 288 289 290 291 291 292 293 295 296 296 297 297 298 298 297 297
287 287 287 287 287 286 286 287 286 286 286 285 283 282 283 285 285 285 286 287 286 286 285 284 284 284 284 284 285 285 285 287 290 292 292 292 292 290 289 288 286 285 283 281 280 280 280 281 282 282 282 283 282 280 280 281 282 283 283 282 280 278 277 278 278 278 279 281 282 284 286 288 289 290 291 291 292 294 295 296 296 296 296 296 296 296
286 286 286 287 287 286 286 286 287 287 286 285 284 284 284 285 287 288 287 285 285 285 285 284 285 285 285 286 286 286 287 288 291 291 291 292 292 290 288 287 285 283 281 280 279 280 280 281 281 281 282 282 280 279 279 279 280 281 282 281 279 277 276 277 277 278 279 280 281 282 284 287 288 290 290 290 291 293 294 295 295 295 295 295 295 295
286 286 287 287 287 286 286 286 287 288 287 285 285 287 286 285 287 289 288 286 285 285 285 286 286 285 285 286 286 287 288 289 290 291 291 293 294 291 288 285 282 281 280 279 279 279 280 281 281 280 281 281 279 278 277 278 278 279 280 279 278 276 275 275 276 277 278 279 280 281 283 285 287 289 290 290 290 291 293 294 294 294 294 294 294 294
286 286 286 287 287 287 287 287 288 288 287 285 286 287 286 286 287 288 288 286 286 286 286 287 287 286 285 286 286 288 289 289 291 292 291 291 292 290 287 283 280 279 278 278 278 279 280 280 280 280 280 280 278 276 276 276 276 277 277 277 276 274 273 274 274 276 277 277 279 281 283 284 286 287 289 290 290 290 292 293 294 294 294 293 293 294
285 284 285 286 286 286 287 287 286 286 285 285 286 286 286 286 286 286 287 286 286 287 288 287 286 286 287 287 288 289 289 289 291 290 289 289 289 288 285 283 280 278 277 277 278 278 279 279 279 279 280 279 277 276 275 275 275 275 275 275 274 272 272 272 273 275 275 276 278 280 282 284 285 286 287 289 290 290 291 292 293 293 293 293 293 293
283 283 285 286 285 285 286 286 285 285 285 285 285 285 285 286 286 285 285 286 286 286 287 286 285 286 288 287 287 288 287 287 287 287 287 288 287 284 282 280 278 276 276 276 277 278 278 278 278 278 279 278 277 275 274 273 273 273 273 273 272 270 270 271 272 273 274 275 277 279 281 283 284 284 285 287 288 289 290 291 292 293 293 293 293 293
276 280 281 282 284 286 285 283 283 284 285 284 284 285 285 285 286 286 285 285 286 286 287 286 285 286 287 286 286 286 286 286 286 287 286 285 283 279 277 276 275 275 275 276 277 277 276 276 276 277 278 277 276 274 273 272 272 272 272 271 270 268 269 270 270 271 273 274 276 277 279 281 283 284 285 286 287 289 290 290 291 292 293 294 294 295
273 276 275 278 284 286 282 277 275 279 284 284 283 284 284 284 285 285 284 284 285 287 287 286 284 283 282 281 282 286 287 286 285 285 283 280 277 276 275 273 273 274 274 275 276 275 274 274 274 275 277 276 274 273 272 271 270 270 270 269 268 267 268 268 269 270 272 273 274 276 278 280 281 283 284 285 286 288 289 290 290 291 292 293 293 294
269 269 268 272 277 278 275 271 269 272 279 280 279 278 278 279 282 284 283 282 283 284 285 284 284 282 279 275 275 279 282 281 280 280 278 275 273 273 273 272 273 274 274 274 274 273 272 272 273 274 275 275 273 272 271 269 269 269 268 267 266 266 266 267 268 269 271 272 273 275 277 278 280 282 284 285 285 286 288 289 290 290 291 292 292 293
Wind_Speed
2 1 2 2 2 2 2 4 7 7 3 1 2 4 7 7 7 5 3 6 3 3 9 11 14 19 17 8 6 9 10 11 12 10 10 10 10 11 11 13 13 13 12 11 18 25 24 28 32 32 32 31 31 32 32 32 33 35 36 37 40 42 41 41 40 40 39 39 37 36 36 38 39 42 41 40 40 39 40 40 39 38 37 36 35 34
2 2 3 2 1 3 4 5 6 8 7 6 5 7 10 9 10 8 5 6 2 2 7 9 12 19 18 10 7 9 11 15 17 13 13 13 13 13 13 16 15 14 11 9 15 20 22 27 30 30 30 28 29 30 31 32 34 36 37 39 40 40 41 42 43 42 43 43 42 40 40 41 41 42 43 43 43 43 42 41 40 39 39 37 36 36
2 4 4 2 3 2 3 5 6 7 7 6 5 6 9 8 9 8 5 5 3 3 8 10 12 17 19 12 9 12 13 16 17 13 14 15 15 15 15 15 15 15 13 11 12 14 19 25 27 28 29 29 30 31 32 32 34 35 37 38 39 39 41 42 43 44 44 45 46 45 44 43 42 42 44 45 45 45 44 43 42 41 40 39 38 38
3 4 2 2 2 1 4 5 6 6 5 5 5 6 8 8 7 6 3 2 3 4 6 8 8 13 17 11 9 13 14 15 17 15 15 15 16 17 17 15 14 16 15 14 14 13 15 20 22 24 27 29 30 31 31 31 32 35 36 38 39 40 42 42 43 45 45 45 45 45 43 41 40 39 41 43 42 43 44 44 44 43 42 41 40 40
6 6 2 4 5 5 6 7 6 5 4 5 7 8 9 10 8 7 4 3 4 6 5 7 9 11 15 13 10 10 12 14 16 17 17 15 15 16 16 16 15 15 14 14 15 14 13 15 19 22 25 27 28 30 32 32 34 36 38 39 40 41 42 42 43 44 43 42 41 39 34 31 31 30 31 35 36 37 40 43 45 45 44 42 41 41
8 9 6 8 9 7 8 9 7 5 4 6 8 11 13 12 10 9 8 5 4 7 5 5 8 9 12 13 10 7 8 13 15 15 18 16 13 13 14 15 14 13 14 14 15 16 15 15 17 21 24 24 26 30 33 35 36 37 38 38 38 40 41 40 41 42 41 41 38 36 32 29 27 26 28 33 36 38 42 44 43 43 43 42 41 41
4 6 7 8 9 8 8 9 5 4 4 8 7 9 11 12 11 11 9 5 3 6 3 5 5 9 12 12 9 7 9 13 13 11 15 16 11 10 11 11 12 12 13 13 15 15 16 16 16 18 22 24 27 31 32 33 35 36 36 36 37 39 40 41 41 41 41 40 39 38 38 36 34 31 32 36 40 43 44 43 41 41 41 41 42 43
2 4 5 6 7 7 7 5 4 8 6 8 1 3 6 9 9 9 8 6 5 7 3 3 4 7 13 12 6 8 11 11 11 11 13 14 10 9 10 10 12 13 13 13 14 15 15 15 14 16 21 24 25 28 29 30 32 33 35 36 37 38 39 39 39 40 41 41 40 40 40 40 40 38 37 38 40 41 39 39 40 40 40 42 43 45
3 3 4 4 5 6 5 5 8 9 7 7 0 2 7 7 6 5 5 6 5 7 6 4 5 6 12 12 2 5 9 8 10 12 12 14 12 10 11 11 12 14 13 11 12 13 12 11 13 18 23 24 24 24 25 28 30 32 35 36 36 36 37 37 37 38 41 43 43 42 41 40 40 40 39 38 38 38 36 37 39 39 41 43 45 46
1 1 1 3 5 5 4 6 8 9 9 7 1 4 7 4 5 5 4 5 5 7 9 7 8 6 11 14 4 3 7 7 9 10 9 12 14 11 10 11 11 11 10 9 9 10 11 12 17 22 24 26 27 26 26 29 30 31 33 35 36 38 38 38 39 40 42 44 44 43 42 41 39 38 37 35 35 35 35 36 37 39 41 43 45 46
7 5 4 5 7 5 4 5 7 10 11 6 1 4 6 3 5 6 4 4 5 7 10 12 13 9 9 14 8 4 5 6 7 7 8 11 13 10 9 9 9 9 8 8 8 8 10 14 19 22 22 27 30 29 29 29 29 31 33 34 37 39 39 39 40 41 42 44 45 45 44 43 42 39 37 35 34 34 35 37 38 40 42 43 43 44
6 5 4 5 6 5 6 7 6 7 8 5 3 3 5 4 5 4 3 4 5 6 9 12 13 12 11 12 8 4 3 5 6 8 9 11 10 8 7 7 7 6 6 6 7 7 8 11 15 17 19 24 27 27 27 29 30 31 33 35 36 37 39 40 40 41 43 44 45 46 45 44 43 40 38 38 38 37 38 39 38 39 39 39 40 41
4 5 6 4 3 5 5 5 4 4 4 4 3 2 3 4 3 4 5 5 5 7 9 9 9 10 10 12 16 13 6 4 5 6 7 9 9 7 6 6 5 5 5 6 6 7 7 8 10 12 14 19 22 25 26 27 28 29 31 33 34 36 38 39 40 41 43 44 45 46 45 44 43 41 41 41 40 40 40 39 38 38 38 37 39 41
4 5 3 2 1 3 5 5 4 3 4 5 5 4 4 4 4 6 6 5 6 8 9 9 7 6 6 10 20 21 14 10 11 11 10 8 7 7 7 7 8 7 7 7 7 7 8 9 10 10 13 17 21 24 25 25 26 26 28 30 32 34 35 37 40 41 42 44 45 46 45 44 42 42 42 41 40 40 40 39 39 40 40 40 42 44
2 6 3 3 1 1 3 5 2 0 2 4 5 4 6 7 6 6 4 4 5 6 6 5 6 6 5 7 10 11 9 9 10 10 7 4 6 8 8 10 10 10 9 8 8 8 9 10 10 11 15 18 21 25 26 25 25 25 27 29 31 32 33 35 38 39 41 43 43 43 44 43 42 42 41 40 39 38 38 38 38 40 41 42 43 44
2 6 5 3 1 4 3 2 2 0 3 3 2 4 5 5 5 7 8 8 6 5 4 3 3 5 4 6 9 5 6 7 7 7 9 9 9 8 8 9 9 9 8 8 8 10 11 11 11 12 16 19 22 25 25 25 24 24 26 28 30 32 32 34 36 38 39 40 40 41 43 43 41 40 39 38 38 37 37 38 40 41 41 41 41 41
1 5 4 3 2 3 5 3 1 2 3 1 1 4 3 2 2 6 9 10 9 8 5 6 7 5 4 9 10 5 10 12 11 10 10 9 9 9 8 9 9 9 10 9 9 9 11 12 12 14 18 20 23 24 25 26 25 24 25 26 28 30 30 32 34 37 38 37 39 41 42 42 42 41 40 39 38 38 38 38 40 39 39 39 38 38
3 5 5 1 5 6 3 2 3 5 3 1 2 3 4 3 1 3 5 5 6 7 5 9 12 8 5 6 3 8 10 9 9 9 8 9 10 10 9 9 9 10 11 11 11 11 12 12 13 17 21 23 25 26 27 27 26 24 23 25 27 28 30 32 34 35 37 37 38 39 40 42 43 43 42 41 39 38 37 37 38 38 37 38 38 37
2 2 6 3 5 5 3 1 5 4 5 7 4 1 2 2 3 3 4 4 6 7 6 7 10 9 8 7 4 3 6 6 7 8 9 12 11 9 10 11 11 12 12 13 13 13 13 13 14 18 23 27 29 29 28 27 24 21 21 23 25 27 29 31 32 34 36 36 36 37 38 41 42 42 42 40 38 37 38 38 37 37 37 37 37 37
2 1 5 4 3 1 4 1 3 3 4 5 2 1 2 4 4 3 1 1 3 6 8 8 8 5 4 5 5 3 6 5 6 8 9 10 10 9 9 10 11 11 11 12 12 12 14 14 15 20 24 26 29 30 29 27 23 20 19 19 21 24 25 27 29 31 33 34 35 35 35 38 39 40 39 39 38 38 39 39 38 37 37 37 37 38
2 2 3 4 3 1 1 2 5 4 3 2 1 2 3 1 2 3 2 1 1 4 6 7 6 3 0 3 2 8 7 4 4 6 5 6 8 8 7 9 9 10 10 11 11 12 13 13 16 21 25 26 28 29 30 28 25 21 18 16 17 19 21 23 26 28 30 31 32 33 33 35 36 37 37 37 38 39 38 38 38 38 37 37 38 39
1 2 3 3 2 2 5 5 5 5 4 3 3 3 2 1 2 3 5 4 2 2 3 2 4 3 0 0 2 6 5 5 5 4 4 5 7 6 6 7 7 7 8 10 10 11 12 12 14 20 24 26 27 28 30 30 28 25 21 17 14 15 17 19 22 25 27 29 30 32 32 32 33 34 34 34 35 36 36 36 36 37 37 37 38 39
3 2 2 4 4 5 8 6 2 3 3 2 3 3 2 2 3 4 6 4 1 4 3 2 4 3 1 3 3 4 6 5 4 4 6 6 6 7 7 8 8 7 8 9 9 9 9 10 12 17 20 23 24 26 29 30 29 27 25 20 15 13 14 16 18 21 24 26 28 30 30 30 31 32 33 34 35 35 35 35 35 36 37 37 38 39
3 2 3 5 3 3 7 6 4 2 2 2 5 6 5 5 6 6 6 4 3 7 7 5 6 3 0 3 4 4 3 3 5 6 8 8 7 8 9 8 9 10 11 11 10 9 9 9 12 14 15 18 22 24 26 28 29 29 28 25 20 15 14 13 15 17 20 23 25 26 27 28 29 31 32 34 34 35 35 35 35 36 37 38 38 39
3 3 3 4 5 5 5 4 5 4 1 3 4 5 7 9 9 6 4 3 5 10 10 8 9 5 1 2 4 7 6 5 6 5 7 9 9 9 9 7 8 9 11 12 13 12 12 11 11 11 11 15 19 22 25 26 27 28 28 28 24 19 15 12 12 14 16 20 22 23 24 26 27 29 31 32 33 33 34 34 35 37 37 38 38 39
4 4 5 5 7 7 5 3 3 2 1 2 3 5 7 9 10 7 4 3 5 9 10 8 8 8 6 4 6 10 12 11 9 7 8 9 9 9 8 7 8 8 10 12 12 12 12 10 10 10 11 15 19 21 23 25 26 28 29 30 28 23 18 13 11 12 14 17 19 20 22 24 26 27 29 30 31 32 33 34 36 37 38 38 38 38
2 4 6 9 11 10 8 7 5 4 4 3 4 6 6 7 10 7 3 4 4 6 7 6 7 11 12 9 10 14 15 14 12 11 11 10 10 10 8 7 8 8 9 10 10 10 12 11 11 11 12 15 19 22 23 23 25 27 28 30 31 27 20 14 11 11 12 14 16 18 20 22 25 27 28 29 30 31 32 34 36 37 37 38 38 38
2 5 10 13 16 15 13 11 7 6 7 7 7 7 6 6 7 7 6 8 4 2 7 8 9 14 15 11 11 15 15 13 12 11 11 11 10 10 8 8 9 9 10 11 10 10 12 12 11 11 12 14 19 23 24 25 26 27 27 29 31 29 24 16 11 10 11 13 14 16 19 21 24 26 27 28 30 31 32 33 34 35 36 37 37 38
5 9 13 14 17 18 16 13 9 8 8 7 6 8 8 7 8 9 10 10 6 4 10 12 12 15 16 12 13 15 15 13 12 11 10 10 11 10 9 10 11 10 11 13 12 10 11 11 10 10 11 14 18 22 25 26 28 30 30 30 31 30 26 19 12 9 9 12 14 16 18 20 22 24 25 27 28 29 30 31 33 34 35 36 36 37
6 8 14 15 15 16 16 14 10 9 8 7 8 11 11 10 11 12 12 12 10 10 15 16 16 16 15 14 15 16 15 12 10 10 10 11 11 10 11 12 11 10 11 12 11 10 10 10 10 10 10 12 16 20 23 25 27 29 29 30 32 31 27 21 15 11 9 11 13 14 15 16 19 21 22 24 26 27 28 29 31 32 33 34 35 35
8 10 13 12 9 11 13 13 12 11 11 13 15 14 12 11 12 12 13 13 11 12 17 17 13 13 15 15 15 14 13 10 8 11 12 9 9 10 12 12 12 12 11 10 9 10 10 9 10 10 10 11 15 19 21 24 26 28 29 31 32 32 29 22 16 13 10 10 11 12 13 14 16 18 20 21 23 25 27 28 29 30 31 32 33 34
7 8 8 6 5 8 12 14 15 14 12 14 15 14 13 13 14 14 14 12 12 14 16 13 8 10 14 12 9 8 10 9 9 10 10 8 8 9 11 12 14 14 12 9 8 8 9 9 9 10 11 12 15 18 21 24 26 27 29 31 32 32 30 24 18 14 12 10 9 9 11 13 14 16 18 20 22 24 25 27 28 29 30 31 32 33
6 7 6 5 5 7 11 13 13 10 6 8 12 16 19 19 18 16 12 11 13 14 11 9 9 11 11 9 8 8 9 10 9 7 7 8 8 9 10 12 13 14 13 10 6 5 7 8 8 9 11 13 16 19 21 22 23 25 27 28 29 29 29 27 23 18 15 12 10 9 9 11 14 15 17 19 21 23 24 25 26 28 29 30 31 31
8 9 7 6 5 6 7 7 6 5 5 8 12 15 19 19 18 16 14 15 15 12 10 9 9 10 10 10 10 10 10 11 9 6 7 7 7 8 9 11 13 12 10 8 6 5 5 6 8 11 14 16 18 20 21 21 21 24 25 25 26 28 28 28 27 25 22 18 13 10 10 11 12 15 17 18 19 21 23 24 26 27 28 29 30 30
9 10 7 4 3 3 3 6 5 6 9 11 9 6 9 12 14 14 16 18 15 13 14 13 11 12 14 14 10 9 11 11 8 7 8 7 7 7 8 10 10 8 6 6 7 7 7 6 8 11 16 19 20 20 21 21 24 26 26 24 26 27 27 26 26 26 26 24 20 15 11 11 12 13 15 16 17 19 21 23 25 26 27 28 29 30
9 8 6 3 2 1 3 5 7 5 4 4 2 3 4 4 7 8 11 15 15 13 13 14 14 15 16 14 11 10 8 7 6 6 7 7 7 6 6 6 6 6 6 5 6 7 8 9 10 11 14 17 19 19 19 21 24 25 24 24 25 26 26 26 25 26 26 25 24 22 17 12 12 12 12 14 16 18 20 22 23 25 25 26 28 29
12 10 7 5 5 4 5 8 6 3 4 3 4 4 6 7 8 9 8 11 11 11 12 13 15 16 14 12 13 9 2 2 6 7 5 6 5 3 2 3 3 4 5 5 6 8 10 12 14 15 15 15 15 17 19 22 23 23 22 24 25 25 25 26 26 26 26 25 25 25 22 17 13 13 12 13 16 18 20 22 23 24 25 25 25 26
15 13 9 7 6 7 8 8 5 6 9 7 6 7 10 10 8 8 5 7 7 11 15 15 15 15 13 12 11 5 2 1 6 6 4 4 4 3 2 3 3 4 5 6 8 10 12 15 17 18 17 15 15 17 20 22 22 21 20 22 23 23 24 26 26 27 27 27 27 27 25 20 15 13 14 14 17 19 21 22 22 23 24 25 25 25
18 15 12 9 7 7 8 7 7 8 7 7 10 8 6 7 8 8 4 5 9 12 15 14 14 14 11 11 9 3 4 2 6 6 4 4 5 5 4 3 3 4 5 7 9 10 13 16 17 17 17 16 18 21 21 21 21 18 17 20 21 21 23 24 25 27 29 28 28 28 26 23 17 13 14 16 18 19 20 21 22 22 23 24 25 25
16 12 9 8 8 9 9 8 7 6 3 8 12 8 6 10 11 8 2 7 13 13 12 13 13 13 10 9 7 4 5 5 5 4 4 5 4 4 4 3 2 3 5 7 10 11 12 13 14 15 15 16 20 23 23 23 21 17 16 18 19 19 20 21 25 28 28 28 29 29 27 25 20 15 14 17 18 19 19 19 20 20 21 22 22 23
9 7 7 7 9 10 10 7 5 4 3 7 10 10 10 11 9 5 8 10 9 6 8 12 12 11 9 8 6 5 6 7 6 4 4 5 4 3 2 3 2 2 5 7 9 11 12 12 13 14 14 17 21 23 23 24 20 16 16 17 17 18 20 23 27 29 28 28 29 29 28 27 23 18 14 15 17 17 18 18 18 19 21 21 21 20
6 5 6 7 8 8 8 7 6 5 3 8 9 10 12 8 3 8 9 5 3 7 9 11 11 9 9 8 6 6 6 5 5 5 4 5 5 3 2 2 1 3 6 8 9 11 12 12 13 14 15 17 20 22 23 22 18 15 17 15 15 21 25 27 31 31 27 27 29 28 27 27 25 22 17 14 13 15 16 16 17 19 20 21 21 20
6 4 4 6 6 5 5 5 6 5 6 14 12 7 7 8 9 8 3 3 5 9 9 9 8 8 8 7 7 7 6 4 5 5 5 5 4 3 4 4 2 1 4 7 9 11 11 10 10 12 13 15 19 22 23 20 16 16 16 14 17 26 29 30 31 29 24 25 28 28 28 27 27 24 19 14 11 13 15 15 17 18 19 21 21 20
6 5 4 5 5 4 4 6 7 5 8 17 15 9 13 14 8 5 5 3 4 6 7 7 6 6 8 7 7 6 6 5 6 5 5 4 4 5 5 4 3 2 1 4 7 9 9 8 8 10 11 11 17 23 23 19 17 17 16 16 21 28 31 31 31 27 23 24 27 27 27 28 27 25 21 15 11 11 13 14 16 17 19 20 21 20
5 6 5 5 6 8 7 7 6 2 6 14 13 12 15 13 3 6 7 5 3 4 5 5 5 6 7 7 6 5 5 5 5 6 5 5 5 5 5 5 5 4 1 3 5 7 7 7 7 9 9 10 16 23 22 18 17 17 17 18 22 26 29 32 30 24 21 23 26 25 25 27 27 26 23 17 11 11 13 14 15 17 18 19 20 19
4 5 4 1 3 7 6 4 3 3 7 14 15 10 8 7 4 5 6 5 4 5 4 5 6 7 7 7 6 5 6 6 6 6 5 4 3 3 5 6 6 5 2 4 6 7 7 6 7 9 8 9 15 21 21 17 16 17 17 19 22 26 29 30 27 22 20 24 27 25 23 24 26 26 24 20 14 11 13 14 15 17 17 18 19 19
3 4 3 3 3 4 5 6 5 5 7 12 14 9 4 4 5 6 6 5 5 6 5 5 5 6 6 7 7 6 6 6 5 4 3 4 4 4 5 5 5 5 5 6 7 7 7 7 8 9 9 8 13 20 20 17 16 17 17 18 23 29 30 27 24 21 22 25 27 24 21 21 24 26 25 23 18 13 12 14 15 17 17 18 18 17
4 4 2 3 3 2 3 5 2 3 6 8 9 7 6 4 3 3 5 5 5 5 5 4 5 6 5 5 6 6 4 3 4 3 2 4 4 4 4 4 4 5 6 8 8 7 8 8 9 10 10 8 13 20 21 18 17 18 17 19 25 31 30 25 22 22 24 24 22 20 19 18 20 24 25 24 22 17 13 14 16 17 19 20 20 19
5 4 4 3 3 3 4 6 7 3 2 4 4 4 3 3 4 4 3 4 5 5 5 5 4 3 4 3 3 4 3 2 2 3 3 4 4 5 5 4 5 6 7 9 9 9 11 10 10 11 10 8 13 20 21 19 17 16 16 20 27 31 28 23 22 22 23 22 20 18 17 17 18 20 22 23 24 21 16 14 15 18 20 21 22 22
3 2 4 4 2 2 2 6 8 5 3 2 2 2 3 2 2 5 4 4 4 5 6 6 6 6 5 5 4 3 4 2 2 5 6 6 5 5 5 5 5 6 8 10 10 10 13 13 13 13 10 8 14 21 22 19 18 16 15 20 26 27 25 23 22 20 20 20 19 19 18 17 17 18 20 22 23 23 20 16 13 16 19 21 21 21
4 4 6 4 3 4 5 8 8 6 5 6 8 8 8 7 4 2 3 2 2 2 4 6 6 6 6 8 8 6 5 4 4 6 7 6 5 5 7 7 5 5 8 11 11 11 14 14 14 14 10 9 16 22 22 20 19 17 18 23 25 23 22 23 21 18 19 20 20 19 19 18 17 17 18 20 21 22 21 19 16 13 15 19 20 20
Wind_Direction
91 195 249 261 341 79 168 193 227 254 269 260 270 286 280 270 266 260 257 277 278 253 253 245 254 264 267 257 246 269 278 272 262 254 256 260 262 261 259 262 263 260 259 260 263 262 261 261 262 261 260 260 260 258 254 250 246 243 241 237 235 236 233 228 224 220 218 217 217 218 220 221 223 225 225 224 226 228 229 231 230 229 229 228 227 227
67 225 249 244 155 131 173 195 217 247 255 258 260 272 275 265 268 261 240 262 245 218 261 262 268 270 267 259 242 252 263 265 260 254 257 256 256 259 258 259 261 262 261 256 258 261 259 258 259 260 259 258 255 255 251 247 245 242 238 235 233 233 231 228 224 220 218 217 216 217 220 221 223 224 224 224 225 226 228 230 230 230 230 230 230 230
323 270 270 209 173 163 203 206 213 234 240 247 245 258 268 267 281 275 227 236 236 224 264 270 271 273 272 261 239 244 247 255 259 251 250 253 254 255 256 257 260 264 263 256 255 257 257 258 257 257 256 255 254 253 249 245 244 241 236 233 232 230 229 228 225 222 220 219 218 219 221 222 223 224 225 225 226 226 226 228 230 230 231 231 231 230
282 256 238 93 68 293 263 236 224 241 238 230 229 243 258 262 274 274 237 237 258 239 257 284 286 278 279 269 236 240 243 252 260 254 246 246 248 252 254 256 257 259 262 261 259 257 257 259 257 251 250 251 250 247 245 241 239 237 235 232 230 228 228 227 225 223 222 221 220 220 221 222 223 224 225 225 225 225 225 227 229 230 231 231 230 229
241 231 251 351 329 286 273 265 243 247 255 234 228 237 254 257 244 243 272 313 287 262 264 301 300 276 273 270 249 240 240 248 254 254 253 245 242 250 255 255 255 256 260 262 263 262 259 257 255 251 249 248 245 242 240 238 236 235 234 232 230 228 227 226 225 224 221 219 218 216 215 217 218 220 221 219 220 222 222 224 226 227 229 228 228 228
247 235 245 281 274 259 254 255 241 225 269 268 228 222 237 251 250 245 268 294 292 277 249 241 271 275 271 261 249 240 233 241 245 248 255 253 241 245 252 255 257 257 257 258 259 261 261 260 259 255 252 247 243 243 242 241 239 237 235 233 230 227 226 226 225 223 219 216 214 209 205 205 205 209 212 213 216 219 221 222 223 224 226 227 227 227
246 214 201 221 233 234 236 244 232 179 252 271 223 208 230 244 251 249 256 258 252 270 230 167 240 284 283 263 238 230 230 238 246 245 253 257 247 239 246 251 256 256 254 255 256 256 257 260 260 257 254 249 247 249 249 245 241 238 236 234 230 227 225 224 224 222 218 215 213 209 207 207 206 209 213 215 219 221 222 221 222 223 225 226 227 226
188 200 197 204 208 219 231 236 196 168 217 264 175 135 241 244 247 244 242 236 233 262 267 147 221 273 282 273 224 213 233 243 254 252 253 261 255 241 241 239 245 249 246 248 252 252 252 256 262 265 264 261 258 258 254 248 243 239 237 235 232 228 225 223 222 220 217 214 213 212 211 211 212 214 216 218 221 223 223 222 221 223 225 227 226 226
128 170 197 215 216 217 216 195 184 178 218 262 6 206 247 251 257 244 230 241 249 264 260 209 202 244 273 276 186 189 239 249 254 252 251 260 257 244 242 236 238 246 248 247 253 260 263 262 263 266 268 268 266 263 257 252 246 242 239 236 232 229 225 223 220 218 217 215 214 213 213 214 215 216 218 220 221 222 222 221 221 221 224 225 225 224
229 192 245 266 257 238 217 194 184 187 222 248 249 252 266 286 272 256 237 249 252 250 253 226 197 220 270 273 257 192 239 242 249 253 246 252 255 245 241 242 243 251 257 257 258 264 267 265 264 265 267 268 266 263 259 255 248 242 238 233 230 228 225 222 220 218 217 215 214 214 214 215 216 215 216 217 219 220 219 219 219 219 221 222 222 221
266 282 306 277 254 245 255 235 197 201 224 242 304 283 285 280 255 257 235 236 252 246 245 231 211 209 257 270 258 200 222 232 243 259 246 242 250 247 242 244 245 248 255 263 267 269 270 273 273 272 270 268 268 264 259 254 249 241 235 230 228 228 225 222 219 217 216 215 214 214 215 215 215 214 211 212 214 214 214 215 216 216 218 219 219 218
276 265 257 252 236 222 255 256 225 222 235 240 250 269 278 258 239 250 211 199 235 245 238 228 212 207 234 266 267 211 211 238 234 248 256 253 256 255 251 252 256 264 277 287 290 286 285 286 283 278 273 271 271 268 260 253 248 241 234 229 226 226 223 220 218 216 215 214 214 215 216 216 216 214 211 210 212 211 211 213 213 213 214 214 215 216
295 238 222 241 230 189 214 248 235 223 224 219 218 227 256 249 228 231 213 199 232 248 243 229 209 211 233 260 263 252 243 256 245 241 251 257 264 272 280 288 304 323 324 316 307 302 300 299 296 293 288 285 281 276 269 262 253 245 237 231 226 225 222 218 217 215 214 214 214 215 216 217 217 215 214 213 213 212 212 212 211 210 210 209 211 213
317 300 258 218 255 186 191 225 240 218 207 209 204 200 221 236 246 239 221 216 238 250 248 224 202 218 231 240 253 255 248 244 249 246 238 240 268 302 333 353 3 6 357 345 334 327 323 318 313 307 301 296 290 285 281 274 264 253 244 236 231 229 225 219 217 215 213 214 214 214 215 216 216 216 216 216 215 214 213 212 211 210 209 209 210 212
260 302 282 175 151 104 175 212 226 313 252 233 219 215 225 232 246 251 241 235 238 250 250 213 190 217 215 215 244 257 251 245 253 259 266 303 346 355 9 15 9 2 355 347 340 336 333 327 322 316 310 305 298 293 288 281 271 258 248 241 235 232 227 221 218 215 214 214 214 214 215 215 215 216 217 217 217 216 214 212 212 212 212 212 212 213
216 260 259 241 188 120 144 188 126 171 266 252 213 220 233 238 248 256 260 258 258 265 251 200 208 228 233 268 280 306 24 21 9 17 24 18 12 13 16 11 1 352 347 342 342 340 335 333 330 325 320 314 307 301 294 286 277 263 252 244 238 235 231 225 220 217 216 215 214 214 214 215 215 216 217 218 218 217 215 214 213 214 214 214 213 213
192 268 278 334 332 175 174 174 153 246 267 6 174 235 279 332 288 264 261 253 251 257 238 216 239 252 257 273 285 1 40 29 24 33 34 21 12 13 14 5 354 349 346 344 343 339 337 337 336 333 329 323 315 309 300 293 285 273 259 249 241 237 233 228 224 220 218 215 214 214 213 213 213 214 215 216 216 216 215 215 215 215 215 215 214 213
189 264 266 273 276 258 178 155 253 239 211 224 256 279 333 344 255 256 272 259 243 250 241 222 231 242 239 248 304 38 38 16 12 22 23 18 17 12 5 357 350 347 344 343 344 344 344 343 341 340 336 330 324 315 307 301 294 284 269 255 246 239 233 229 225 222 219 216 214 214 213 212 212 213 214 215 215 215 214 214 214 214 214 215 214 212
135 265 276 246 238 268 27 17 274 256 203 218 241 24 7 279 246 230 246 260 249 255 262 232 224 227 220 228 258 35 51 21 4 13 21 19 12 3 358 352 349 350 347 347 349 347 347 345 344 342 338 335 333 327 320 314 307 296 280 264 252 244 238 233 227 223 221 218 216 215 214 213 213 213 213 213 213 213 213 214 213 212 213 213 212 211
101 154 277 283 236 288 21 67 246 284 244 235 270 59 185 235 267 252 239 319 263 262 268 250 234 215 204 243 243 156 92 51 19 21 22 14 5 357 354 348 346 350 348 345 345 343 344 343 342 344 341 338 337 335 332 329 323 312 297 279 263 253 245 238 230 225 222 219 218 217 216 215 214 214 213 212 211 211 213 213 212 212 212 211 212 211
62 148 236 292 308 334 317 203 184 210 226 217 274 238 201 226 311 286 262 248 235 268 276 263 253 224 25 335 122 130 118 105 79 46 22 8 1 349 343 342 340 343 342 340 340 340 340 340 341 343 343 342 341 341 342 341 337 330 318 299 278 263 252 243 234 227 223 221 219 217 216 216 215 215 214 212 212 212 212 212 212 211 211 210 211 211
174 183 199 256 270 209 233 222 168 164 160 150 189 214 213 233 284 285 263 239 208 262 273 262 276 281 243 320 127 133 137 134 113 68 33 12 357 341 329 328 324 327 334 334 334 336 338 340 341 342 344 345 345 346 347 347 345 340 333 321 301 277 259 249 240 231 225 222 220 219 218 216 215 214 214 213 212 212 212 211 210 209 209 209 210 211
146 121 195 240 228 225 246 245 194 183 171 167 208 194 158 183 200 226 251 260 297 283 281 234 253 280 140 179 189 167 153 125 91 49 27 2 351 346 331 324 325 326 330 332 332 334 337 339 340 340 343 346 347 348 348 349 348 344 339 333 320 296 274 259 247 237 229 223 221 220 219 217 215 213 212 212 212 212 211 210 208 208 208 208 210 211
107 108 232 265 294 299 285 293 316 299 170 206 241 217 199 215 218 222 246 280 290 269 278 274 247 249 162 209 214 210 182 80 48 30 13 352 350 350 334 330 335 335 336 339 337 335 337 342 344 344 345 346 348 349 348 349 349 347 345 340 332 315 297 277 259 245 233 226 222 220 218 217 214 211 209 210 210 210 210 209 208 208 208 209 209 211
171 159 188 260 301 318 309 313 332 339 148 200 240 211 201 216 223 233 252 264 254 243 244 257 256 248 239 208 221 252 277 346 13 15 6 352 346 342 334 332 332 333 339 338 336 335 337 343 347 346 345 343 345 347 348 349 349 349 347 344 339 328 315 298 273 254 238 229 224 219 217 216 213 211 209 209 209 209 208 208 208 209 209 209 209 210
196 180 158 204 245 262 254 214 240 281 173 219 254 210 196 201 202 211 231 218 236 240 230 238 262 267 273 286 286 283 295 319 332 346 355 345 340 333 326 325 328 334 339 334 332 331 331 339 345 345 343 343 343 345 347 349 349 349 348 347 345 338 326 313 288 263 244 232 224 220 216 214 213 212 210 209 209 209 208 208 208 209 209 208 208 209
139 197 201 212 229 240 232 210 190 155 158 201 221 205 194 189 190 192 214 221 233 259 249 249 277 281 279 290 301 298 300 308 318 334 340 335 335 329 317 317 327 333 333 330 327 324 327 336 342 343 343 341 343 344 345 348 351 351 348 347 348 345 335 322 301 275 252 235 226 222 217 214 214 213 212 212 210 210 210 209 210 209 209 209 208 208
131 225 222 221 231 237 233 222 186 152 191 204 184 188 194 189 188 189 212 227 230 296 269 256 266 275 278 286 290 288 292 301 311 324 330 329 325 318 311 316 324 328 330 328 323 322 328 332 337 343 342 341 343 343 345 349 352 354 351 348 347 348 343 331 309 283 262 243 229 224 222 218 217 216 214 213 212 212 211 210 210 209 209 208 208 208
208 231 225 222 231 235 234 227 192 167 202 201 175 200 208 196 196 202 220 230 215 230 256 258 259 266 273 282 281 280 285 295 304 313 319 316 311 307 310 317 323 327 328 325 321 323 328 330 336 342 339 339 344 344 344 347 351 353 353 351 349 348 348 339 314 286 265 249 238 231 227 222 219 217 215 213 212 212 211 210 209 209 209 208 207 208
205 231 228 225 232 234 234 232 212 197 216 225 221 228 227 220 218 218 230 236 223 229 249 257 261 265 269 270 270 274 281 290 299 304 302 302 304 307 311 315 318 320 320 318 316 320 327 330 334 339 340 342 344 344 343 344 346 349 350 351 350 349 350 344 322 295 267 251 247 240 233 226 220 217 214 212 211 211 211 211 209 208 208 207 207 207
205 225 228 227 236 238 234 234 231 221 222 233 237 235 232 236 236 230 234 236 230 237 247 250 261 270 267 262 263 271 281 285 286 289 291 294 301 307 309 312 314 315 312 309 311 319 328 333 336 340 342 341 340 342 342 341 341 345 349 353 352 350 351 349 332 309 285 266 257 247 238 231 223 217 214 212 211 210 210 210 209 208 207 205 205 205
208 224 229 228 237 235 226 227 232 228 225 239 247 243 232 230 232 229 228 224 217 228 243 248 252 258 260 263 264 264 272 276 274 278 286 294 300 305 308 310 310 308 304 302 311 322 329 335 339 340 340 338 338 341 341 340 339 342 348 352 353 355 359 358 346 326 307 294 281 260 242 232 224 219 215 212 210 210 210 209 207 206 204 203 202 202
204 216 222 217 230 238 225 219 221 218 219 241 242 234 229 228 231 233 232 225 215 217 231 236 231 242 259 273 274 268 270 272 269 265 275 291 301 302 301 301 300 299 298 305 323 337 334 333 335 337 337 335 335 337 339 339 338 339 344 350 354 1 10 12 6 352 336 323 306 282 255 236 225 220 216 213 210 209 207 206 204 203 202 201 200 199
204 213 217 210 225 242 213 181 175 185 208 230 230 226 226 229 233 234 235 233 221 212 222 235 239 251 261 261 259 264 268 268 270 273 280 288 291 290 291 289 290 294 302 319 340 347 336 331 331 335 336 334 334 336 338 340 341 341 345 353 359 5 13 18 19 13 4 355 337 307 276 250 232 224 220 215 210 207 204 203 203 202 201 200 197 195
207 212 220 208 221 239 145 134 165 211 222 227 226 211 209 219 225 227 236 240 230 217 223 233 241 248 252 255 255 255 262 272 285 287 282 278 270 274 280 283 292 310 330 341 342 339 338 337 337 337 336 333 333 336 339 343 346 346 350 358 4 8 10 13 17 16 11 8 0 343 311 273 249 233 225 217 211 207 204 203 202 201 200 198 196 195
206 210 215 199 189 145 123 176 208 236 246 221 184 103 126 178 198 205 236 246 230 216 220 227 235 242 247 255 259 253 259 286 299 273 259 267 270 271 276 285 306 328 335 338 336 333 333 331 330 330 328 328 331 336 341 345 347 348 351 358 4 8 7 9 11 9 5 3 1 356 342 310 275 250 234 223 214 209 206 204 203 201 200 198 197 197
209 211 213 208 198 188 203 215 220 282 292 205 158 160 180 193 186 179 224 249 221 201 209 217 228 239 242 249 257 257 257 343 300 273 249 257 262 249 270 293 311 311 310 322 328 325 326 328 329 329 326 328 335 341 343 345 349 352 353 358 3 5 5 7 7 1 357 354 353 352 350 336 303 270 248 229 218 215 212 208 206 203 201 198 197 197
213 214 212 213 205 197 218 231 222 246 248 213 187 203 205 205 188 159 191 257 229 198 204 212 223 233 237 244 250 248 106 76 282 275 251 238 226 197 242 280 296 302 309 323 326 329 333 333 332 331 330 333 342 349 349 348 351 355 357 359 1 2 5 5 1 355 351 348 346 347 350 347 324 287 261 239 227 223 220 215 210 206 203 201 201 201
217 217 215 220 216 200 215 227 218 231 238 187 185 208 195 167 148 122 126 262 250 219 202 202 218 225 226 237 236 187 130 205 264 270 240 213 207 204 217 250 296 310 319 331 335 336 333 331 332 335 339 342 346 350 352 351 351 356 1 0 358 0 4 1 354 351 349 346 346 346 349 351 340 305 272 253 241 234 228 222 216 211 207 206 205 205
217 216 213 217 220 211 216 226 226 243 240 172 176 182 153 139 128 108 126 251 252 236 194 184 210 219 217 228 224 175 173 210 242 251 207 192 217 228 208 205 262 304 321 332 335 332 328 332 338 342 345 347 347 349 352 352 352 356 1 360 360 3 1 351 346 347 348 348 348 348 349 353 349 327 290 265 255 246 237 229 221 214 208 207 207 207
213 210 206 211 218 217 218 229 235 236 201 173 161 148 140 129 114 150 220 238 244 217 164 173 201 212 210 215 205 190 206 212 219 221 179 176 223 254 212 187 208 302 322 333 338 337 338 344 350 349 348 349 351 353 353 352 351 351 355 1 5 2 352 344 345 348 349 350 350 348 348 352 351 342 317 284 266 254 243 233 224 217 210 206 205 204
213 211 209 207 213 214 214 226 245 251 176 143 137 142 145 137 160 212 218 215 151 138 152 179 196 198 202 206 197 206 219 205 199 205 185 187 209 210 157 150 163 306 317 332 345 349 349 350 353 355 353 354 357 356 353 351 349 347 352 1 3 355 347 346 350 351 348 350 352 350 348 349 350 348 335 307 278 257 245 235 226 220 212 204 200 197
209 213 216 208 207 210 212 213 234 249 166 143 137 139 164 190 215 212 185 107 141 154 162 181 192 186 189 199 208 218 221 197 190 198 200 210 208 163 141 144 152 259 316 330 341 351 353 351 355 358 354 356 1 358 354 353 349 347 352 355 352 349 348 350 353 352 347 348 353 352 350 348 348 349 344 324 291 262 246 234 224 217 211 203 196 191
206 195 206 211 197 190 211 220 227 235 173 157 155 172 200 208 205 152 128 127 151 157 158 173 194 191 183 190 205 211 213 213 206 196 193 208 203 164 149 150 155 168 268 316 335 353 358 354 355 356 355 1 4 0 358 355 348 347 351 349 346 346 348 352 354 352 347 349 352 352 350 347 347 349 348 336 305 267 247 234 221 213 209 203 195 188
215 210 213 211 200 199 214 222 224 219 161 171 183 199 204 207 175 101 134 154 156 162 159 164 186 194 189 189 190 193 205 215 210 197 189 198 203 174 147 140 138 139 172 330 354 3 1 358 355 353 356 6 4 2 1 357 351 348 346 345 345 344 346 351 354 350 344 347 351 351 348 345 345 349 351 345 319 274 250 235 220 210 206 203 197 190
258 263 269 273 227 223 227 223 197 145 159 186 206 219 206 197 173 140 153 163 169 176 170 169 181 188 187 180 171 187 210 207 202 201 185 173 181 155 126 122 117 105 76 15 13 8 360 1 359 355 360 8 6 3 0 356 353 348 341 341 344 344 346 350 350 343 340 346 351 352 349 345 344 346 350 351 335 291 258 240 225 215 207 201 199 197
281 289 276 265 257 231 230 239 223 186 178 194 208 223 233 216 196 178 178 180 173 175 184 183 168 158 165 173 176 194 207 195 195 202 162 147 165 150 119 111 100 87 63 32 20 13 8 7 2 355 355 5 10 5 359 354 351 347 342 341 344 347 350 351 346 339 340 347 350 350 348 345 342 341 344 349 345 318 274 249 234 222 213 205 200 197
308 321 301 263 265 247 257 285 285 169 183 200 205 214 229 221 193 187 196 176 147 157 176 162 136 141 162 178 185 190 181 163 187 202 161 145 153 127 103 92 77 64 48 35 30 27 18 9 1 354 349 360 10 4 359 356 351 346 345 343 345 350 353 349 342 340 342 345 345 344 344 342 340 338 339 341 344 334 299 264 244 230 222 216 210 204
301 309 331 312 279 264 287 336 7 31 203 224 229 234 229 185 167 181 192 145 122 136 146 120 98 122 150 149 155 157 137 121 182 177 136 119 108 83 67 51 37 33 34 34 34 30 19 8 358 350 346 358 6 359 357 358 354 351 349 344 346 353 353 343 336 338 341 343 342 340 341 340 337 337 335 335 338 337 320 288 260 247 240 234 227 222
321 328 340 321 263 238 330 2 359 343 311 294 302 359 19 3 192 179 164 137 140 154 147 122 92 71 65 46 39 98 121 97 103 118 110 101 97 92 82 59 28 17 27 35 36 25 14 6 358 351 350 3 3 356 355 357 355 355 354 347 349 354 350 339 335 335 336 339 339 338 339 337 334 334 332 332 334 334 330 317 287 263 254 249 243 237
7 4 343 328 301 297 333 358 346 315 316 347 358 14 14 352 342 62 72 62 92 111 113 118 109 83 61 37 26 44 75 66 67 96 103 92 79 81 81 70 46 19 28 37 34 18 8 5 360 355 360 10 0 354 354 355 354 356 355 351 352 353 346 340 337 331 331 336 336 335 335 333 329 330 330 329 330 331 330 327 315 291 267 256 251 247